Regional Weather Roundup
Issued by NWS Wakefield, VA

Current Version | Previous Version | Text Only | Print | Product List | Glossary Off
Versions: 1 2 3 4 5 6 7 8 9 10 11 12 13 14 15 16 17 18 19 20 21 22 23 24 25 26 27 28 29 30 31 32 33 34 35 36 37 38 39 40 41 42 43 44 45 46 47 48 49 50

000
ASUS41 KAKQ 030010
RWRAKQ

REGIONAL WEATHER ROUNDUP
NATIONAL WEATHER SERVICE WAKEFIELD VA
800 PM EDT TUE SEP 02 2014

Note: "fair" indicates few or no clouds below 12,000 feet with no
significant weather and/or obstructions to visibility. * = Denotes
station may not report precipitation (e.g., rain,snow,etc.),
thunder or fog.

VAZ042-051-052>054-056-030100-
NORTHERN VIRGINIA

CITY           SKY/WX    TMP DP  RH WIND       PRES   REMARKS
WASH NATIONAL  CLOUDY    81  72  74 N5        29.88R THUNDER
DULLES         CLOUDY    73  72  94 SW13G29   29.93R THUNDER
FORT BELVOIR   TSTM      79  73  83 VRB3G45   29.89R VSB 3/4
QUANTICO       MOCLDY    88  69  53 W10       29.87R THUNDER
FREDERICKSBRG* MOCLDY    85  72  63 SW5       29.87R
STAFFORD*      MOCLDY    84  70  63 SW3       29.92R
WARRENTON      MOCLDY    84  76  76 NW16G22   29.90R THUNDER
CULPEPER*      MOCLDY   N/A N/A N/A NW8       29.91R THUNDER
MANASSAS*      NOT AVBL
LEESBURG*      CLOUDY    75  75 100 CALM      29.91R
WINCHESTER     PTCLDY    77  68  73 S5        29.91R
$$

VAZ048-049-060>072-079>083-030100-
CENTRAL AND SOUTH CENTRAL VIRGINIA...AND NORTH CENTRAL NORTH CAROLINA

CITY           SKY/WX    TMP DP  RH WIND       PRES   REMARKS
RICHMOND       PTCLDY    88  69  53 S10       29.91R
CHESTERFIELD*  PTCLDY    84  64  51 S5        29.93R
PETERSBURG*    PTCLDY    79  70  74 CALM      29.92S
HANOVER        PTCLDY    90  67  46 SW12      29.91R
TAPPAHANNOCK*  PTCLDY    85  66  52 S5        29.89R
CHARLOTTSVILLE MOCLDY    82  70  66 SW3       29.90R
ORANGE*        MOCLDY    82  70  65 W3        29.92R
LOUISA*        PTCLDY    84  70  61 CALM      29.90R
FARMVILLE*     PTCLDY    82  70  65 S3        29.90S
SOUTH HILL*    PTCLDY    82  75  78 CALM      29.99S
ROANOKE RAPIDS PTCLDY    82  68  61 SW12G23   29.96R
RALEIGH        PTCLDY    80  67  64 S8        29.97F
$$

VAZ088>098-030100-
SOUTHEAST VIRGINIA

CITY           SKY/WX    TMP DP  RH WIND       PRES   REMARKS
NORFOLK        CLEAR     89  68  49 SW10      29.92R
VIRGINIA BEACH PTCLDY    88  70  55 SW9       29.92R
NORFOLK NAVAL  PTCLDY    90  71  53 SW8       29.93R HX  96
WEST POINT*    NOT AVBL
NEWPORT NEWS   CLEAR     91  72  53 SW10      29.91R HX  98
LANGLEY AFB    CLEAR     89  72  56 SW15      29.91R HX  96
FORT EUSTIS    CLEAR     87  69  55 S6        29.90R
WILLIAMSBURG*  CLEAR     90  70  51 CALM      29.92R HX  95
FRANKLIN*      CLEAR     84  72  65 S5        29.93S
WAKEFIELD      CLEAR     86  71  60 S3        29.92R
$$

VAZ020-022-025-037-045-030100-
WESTERN AND SOUTHWEST VIRGINIA

CITY           SKY/WX    TMP DP  RH WIND       PRES   REMARKS
STAUNTON*      MOCLDY    82  65  57 CALM      29.97R
HOT SPRINGS VA LGT RAIN  65  60  83 W9        30.13S
LYNCHBURG      MOCLDY    80  72  76 SW3       29.97R
DANVILLE       PTCLDY    83  71  67 SW5       29.96R
MARTINSVILLE   CLEAR     77  73  87 CALM      30.01R
ROANOKE        CLOUDY    82  66  58 W8        29.98R
BLACKSBURG     MOCLDY    79  72  78 S5        30.05S
DUBLIN*        MOCLDY    79  70  72 S3        30.04S
MARION*        PTCLDY   N/A N/A N/A CALM      30.09R
HILLSVILLE*    PTCLDY    75  67  77 S5        30.08R
RICHLANDS*     MOCLDY    81  67  63 SW6       30.07R
WISE*          TSTM      68  64  88 NW6       30.12R
ABINGDON*      CLEAR     80  67  64 NW3       30.05R
$$

MDZ021>025-VAZ099-100-030100-
SOUTHERN MARYLAND AND THE DELMARVA PENINSULA

CITY           SKY/WX    TMP DP  RH WIND       PRES   REMARKS
PATUXENT RIVER PTCLDY    84  73  69 SW6       29.86R
BAY BRIDGE APT   N/A     81  70  69 N7        29.87R
LEONARDTOWN    PTCLDY    81  70  69 CALM      29.88S
DOVER          PTCLDY    84  71  66 S6        29.85R
GEORGETOWN     CLEAR     84  69  60 S9        29.88R
EASTON         MOCLDY    88  73  62 CALM      29.90R HX  96
CAMBRIDGE      PTCLDY    84  72  65 CALM      29.86R
SALISBURY      CLEAR     86  72  62 S6        29.88R
OCEAN CITY     CLEAR     84  75  74 SW8       29.88S
WALLOPS ISLAND CLEAR     83  78  85 SW10      29.89S
ACCOMACK*      NOT AVBL
$$

NCZ012>017-030>032-030100-
EASTERN NORTH CAROLINA

CITY           SKY/WX    TMP DP  RH WIND       PRES   REMARKS
ELIZABETH CITY CLEAR     85  77  77 S10       29.95R HX  95
AHOSKIE*       CLEAR     82  73  74 S3        29.96R
EDENTON*       CLEAR     86  76  73 SW12      29.96R HX  96
CURRITUCK*     CLEAR     85  71  61 CALM      29.95R
KILL DEVIL HLS CLEAR     83  78  82 SW6       29.96R
MANTEO         CLEAR     83  78  83 S14       29.97R
CAPE HATTERAS  CLEAR     80  77  90 SW15G23   30.01R
GOLDSBORO      LGT RAIN  76  75  98 CALM      29.96S
WASHINGTON     CLEAR     83  75  76 S8        29.99R
GREENVILLE     MOCLDY    82  73  74 S8        29.99S
NEW BERN       PTCLDY    82  75  79 S6        30.01R
WILMINGTON     PTCLDY    81  74  79 S10       30.00F
$$

VAZ048-030100-
ELSEWHERE

CITY           SKY/WX    TMP DP  RH WIND       PRES   REMARKS
HARRISBURG PA  CLOUDY    75  69  81 SW8       29.83F
BALTIMORE      TSTM      74  71  91 W12G21    29.90R
ANNAPOLIS      MOCLDY    81  70  69 N5        29.88R
ANDREWS AFB    CLOUDY    82  71  68 NE6G29    29.88R
WILMINGTON DE  LGT RAIN  74  67  78 W6        29.87R
PHILADELPHIA   TSTM      77  67  71 W25G46    29.91R
WILDWOOD NJ*   CLEAR     81  70  69 S6        29.88R
ATLANTIC CITY  CLEAR     82  73  74 S7        29.85F
HENDERSON NC   PTCLDY    82  66  58 SW12      29.97R
GREENSBORO     MOCLDY    81  68  64 SW12      30.00R
ROCKY MOUNT    PTCLDY    79  69  71 CALM      29.98S
FAYETTEVILLE   CLOUDY    77  74  90 CALM      29.99R
CHARLOTTE      MOCLDY    84  66  54 S18       30.01R
$$

VAZ100-030100-
MARINE

STATION/POSITION TIME  TEMP    WIND        PRES    WAVE   SWELL
                       AIR SEA DIR/SP/G            HT/PER HT/PER
                 (UTC) (F)     (DEG/KT/KT) (MB)    (FT/S) (FT/S)
44066 TX TWR #4  0000   77 75  210/ 12/ 12 1011.3F   3/ 6   2/ 6
CAPE MAY NJ      0000   83 81  190/  5/  8 1010.6R
LEWES DE         0000   86 78  220/  4/  7 1010.9S
15NM E FENWICK I 0000   78 77              1011.5F   3/ 5
OCEAN-CITY-INLET 0000   79 77  210/  9/ 11 1011.4R
WACHAPREAGUE VA  0000   85 87  230/  4/  6 1012.4R
THOMAS POINT MD  0000   84 80  270/  4/  6 1012.7R
GOOSES REEF MD   0000   82     190/  8/  8 1011.5S
COVE POINT MD    0000   82     200/  4/  5 1011.1R
SOLOMONS ISLAND  0000      82                N/A
BISHOPS HEAD MD  0000   86     180/ 11/ 14 1010.9R
PINEY POINT MD   0000          230/ 10/ 11   N/A
POTOMAC MD       0000   84     200/  6/  8 1010.9R
CAMBRIDGE MD     0000   85 80  180/  4/  5 1010.8F
LEWISETTA VA     0000   88 83  230/  7/  8 1011.3R
RAPPAHANNOCK LGT 0000          210/ 15/ 15 1012.6S
STINGRAY PT      0000   87     220/  8/  8   N/A
YORK RVR RNG VA  0000   87     220/ 12/ 12 1012.1R
YORKTOWN VA      0000   89 80  210/  6/  8 1012.4R
JAMESTOWN VA     0000   87     220/  4/  6   N/A
DOMINION TERM VA 0000   86     220/  7/  8 1013.2R
KIPTOPEKE VA     0000      84  230/ 10/ 12   N/A
CHES BAY BRIDGE  0000   89 78  200/ 14/ 17 1012.5R
CAPE HENRY VA    0000   89     210/  6/ 10 1011.9R
CHESAPEAKE LGHT  2300   84     200/ 16/ 16 1013.3S
WILLOUBY STN VA  0000   88     240/ 12/ 13 1011.9R
S CRANEY ISL VA  0000          210/  8/ 12 1013.0R
CAPE HENRY BUOY  0000      81                N/A     2/ 9
1ST LANDING BUOY 0000   87     220/ 10/ 12 1012.8R
CAPE CHARLES BUO 0000      81                N/A     2/ 9   2/ 9
OFFSHORE WE BUOY 0000      79                N/A     3/ 9   2/ 9
64NM E OF VA BCH 2300   80 78  200/ 16/ 17 1013.1F   3/ 4   2/11
DUCK PIER NC     0000   86 75  200/ 12/ 19 1013.5R
44056 DUCK FRF   2300                        N/A     2/11   2/11
OREGON INLET NC  0000   83 85  200/ 19/ 23 1015.0R
HATTERAS NC      0000   82 84  220/ 12/ 18 1016.7R
DIAMOND SHLS NC  0000   81     210/ 17/ 21 1015.9R   4/ 4   2/ 9
CAPE LOOKOUT NC  2300   82     220/ 12/ 15 1016.3R
$$


USA.gov is the U.S. government's official web portal to all federal, state and local government web resources and services.